[[{"header":{"parameterUnit":"m.s-1","parameterCategory":1,"la1":30.2992,"la2":30.254,"lo1":-89.0895,"lo2":-89.0443,"dy":0.0025,"dx":0.0025,"nx":19,"ny":19,"refTime":"2026-05-09T03:00:00:Z","depth":0,"parameterNumber":2,"parameterNumberName":"U-component_of_WINDS"},"data":[0,0,0,0.2087,0.2088,0.2152,0.2152,0.2238,0.2239,0,0,0,0,0,0,0,0,0,0,0,0.2071,0.2072,0.2087,0.2089,0.2152,0.2152,0.2238,0.2239,0,0,0,0,0,0,0,0,0,0,0,0.2071,0.2072,0.2073,0.2089,0.2152,0.2152,0.2237,0.2188,0,0,0,0,0,0,0,0,0,0,0.2126,0.2115,0.2072,0.2073,0.2089,0.2152,0.2152,0.2185,0.2191,0.2211,0,0.223,0,0.2236,0.2245,0.2245,0,0,0,0.2086,0.211,0.2124,0.2073,0.209,0.2151,0.2123,0.2189,0.2195,0.2219,0.2231,0.2234,0.2237,0.2245,0.2246,0.2369,0.2369,0,0,0.2083,0.2085,0.212,0.2128,0.2119,0.2121,0.2125,0.2192,0.2206,0.2232,0.2236,0.2238,0.2246,0.2246,0.2368,0.2369,0,0,0,0.2074,0.2082,0.2095,0.2125,0.2136,0.2122,0.2127,0.2203,0.2207,0.2237,0.224,0.2246,0.2247,0.2367,0.2368,0.2403,0,0,0,0.2072,0.2077,0.2093,0.2095,0.2135,0.217,0.2137,0.2202,0.221,0.2239,0.2246,0.2248,0.2366,0.2368,0.24,0.2419,0,0,0,0.2066,0.2077,0.2087,0.2095,0.2122,0.2169,0.2177,0.2204,0.2212,0.2245,0.2249,0.2366,0.2367,0.2398,0.2416,0.2452,0,0,0,0.2061,0.2118,0.2087,0.2152,0.2122,0.219,0.2176,0.2228,0.226,0.2247,0.2367,0.2368,0.2397,0.2413,0.2449,0.2482,0.2496,0,0,0.2134,0.2127,0.2164,0.2139,0.2213,0.218,0.226,0.2289,0.229,0.2342,0.2345,0.2401,0.2415,0.2451,0.2574,0.2585,0,0,0,0.2188,0.2215,0.2234,0.2265,0.2288,0.2309,0.2325,0.2335,0.2379,0.2317,0.2424,0.2432,0.2453,0.2469,0.2478,0.2496,0.2375,0.2375,0.2375,0.2295,0.2293,0.2355,0.236,0.239,0.2405,0.243,0.2446,0.2437,0.2462,0.2477,0.2552,0.257,0.2577,0.2595,0.2494,0.2495,0.2495,0.2495,0.2401,0.2439,0.2423,0.2478,0.2475,0.2521,0.2537,0.2528,0.257,0.254,0.2559,0.2526,0.2589,0.2605,0.2497,0.2497,0.2497,0.2496,0.2496,0.2471,0.2489,0.2499,0.2543,0.2576,0.258,0.262,0.2617,0.2614,0.2632,0.2647,0.2647,0.2645,0.2639,0.264,0.264,0.264,0.264,0.2641,0.2539,0.255,0.2584,0.2612,0.263,0.2654,0.2669,0.2687,0.2706,0.27,0.27,0.2688,0.2596,0.2573,0.2645,0.2644,0.2643,0.2643,0.2643,0.2647,0.2622,0.2675,0.2693,0.2725,0.2757,0.2752,0.2789,0.2803,0.2823,0.2806,0.2739,0.2732,0.2724,0.2705,0.2807,0.2807,0.2807,0.2807,0.2706,0.2701,0.2754,0.2783,0.2812,0.2812,0.2871,0.2882,0.289,0.2899,0.2884,0.2858,0.285,0.2847,0.2837,0.2819,0.2948,0.2948,0.2948,0.2772,0.277,0.2821,0.2828,0.2852,0.2872,0.2927,0.2961,0.2965,0.2954,0.2905,0.29,0.2858,0.2844,0.2833,0.2817,0.2784,0,0]},{"header":{"parameterUnit":"m.s-1","parameterCategory":1,"la1":30.2992,"la2":30.254,"lo1":-89.0895,"lo2":-89.0443,"dy":0.0025,"dx":0.0025,"nx":19,"ny":19,"refTime":"2026-05-09T03:00:00:Z","depth":0,"parameterNumber":3,"parameterNumberName":"V-component_of_WINDS"},"data":[0,0,0,2.1115,2.1117,2.1214,2.1214,2.1332,2.1333,0,0,0,0,0,0,0,0,0,0,0,2.1085,2.1086,2.1115,2.1117,2.1214,2.1214,2.1332,2.1333,0,0,0,0,0,0,0,0,0,0,0,2.1085,2.1086,2.1087,2.1118,2.1214,2.1214,2.1331,2.126,0,0,0,0,0,0,0,0,0,0,2.1167,2.1139,2.1086,2.1087,2.1118,2.1214,2.1214,2.1257,2.1264,2.1286,0,2.1308,0,2.1322,2.1341,2.1341,0,0,0,2.1118,2.1133,2.116,2.1087,2.1119,2.1213,2.117,2.1261,2.127,2.1297,2.1309,2.1314,2.1324,2.1341,2.1342,2.1473,2.1473,0,0,2.1112,2.1102,2.1154,2.1166,2.1153,2.1167,2.1173,2.1266,2.1279,2.131,2.1317,2.1326,2.1342,2.1343,2.1472,2.1473,0,0,0,2.1097,2.1098,2.1123,2.1161,2.1179,2.117,2.1177,2.1274,2.1284,2.1318,2.1327,2.1343,2.1344,2.1472,2.1472,2.1493,0,0,0,2.1094,2.1089,2.1121,2.1115,2.1177,2.1228,2.1183,2.1277,2.1288,2.1327,2.1343,2.1345,2.1471,2.1472,2.1491,2.1504,0,0,0,2.1079,2.1087,2.1101,2.1114,2.1156,2.1227,2.1242,2.128,2.1294,2.1341,2.1346,2.1471,2.1472,2.1489,2.1501,2.1536,0,0,0,2.106,2.1116,2.1101,2.1167,2.1155,2.124,2.1241,2.1304,2.1347,2.1343,2.1471,2.1472,2.1489,2.15,2.1534,2.1564,2.1575,0,0,2.1125,2.1124,2.1164,2.1153,2.1238,2.1226,2.1313,2.1361,2.1374,2.1438,2.1442,2.1492,2.1501,2.1536,2.1642,2.1651,0,0,0,2.118,2.1209,2.1234,2.1275,2.1315,2.1349,2.1385,2.1403,2.1459,2.1406,2.1514,2.152,2.154,2.1555,2.1563,2.1581,2.1479,2.1478,2.1478,2.1256,2.1272,2.1338,2.1365,2.1405,2.1442,2.1476,2.1505,2.1508,2.1533,2.1552,2.1615,2.1632,2.1638,2.1657,2.1569,2.1569,2.1569,2.1569,2.1352,2.1395,2.1398,2.1464,2.148,2.1534,2.1571,2.1571,2.1623,2.1602,2.1621,2.1596,2.1647,2.1665,2.1571,2.157,2.157,2.157,2.157,2.1404,2.1427,2.1449,2.1511,2.1556,2.1581,2.1631,2.1642,2.1653,2.1672,2.1694,2.1693,2.1695,2.1681,2.1682,2.1682,2.1682,2.1682,2.1682,2.1449,2.1473,2.1516,2.1563,2.1591,2.1629,2.1667,2.1694,2.1727,2.1731,2.1731,2.1731,2.165,2.1629,2.1686,2.1685,2.1685,2.1684,2.1684,2.1541,2.1523,2.1588,2.1617,2.1673,2.1717,2.1731,2.1786,2.181,2.1834,2.183,2.1768,2.1766,2.176,2.1744,2.1826,2.1826,2.1826,2.1826,2.1585,2.1586,2.1656,2.1701,2.1746,2.1766,2.1837,2.1867,2.1894,2.1909,2.1899,2.1877,2.187,2.1873,2.1865,2.1849,2.1957,2.1957,2.1957,2.1643,2.1649,2.1709,2.1738,2.1782,2.182,2.1888,2.1937,2.1964,2.1963,2.1922,2.1916,2.1881,2.1869,2.1868,2.1854,2.1826,0,0]}]]